Regional Weather Roundup
Issued by NWS

Home | Current Version | Previous Version | Text Only | Print | Product List | Glossary Off
Versions: 1 2 3 4 5 6 7 8 9 10 11 12 13 14 15 16 17 18 19 20 21 22 23 24 25 26 27 28 29 30 31 32 33 34 35 36 37 38 39 40 41 42 43 44 45 46 47 48 49 50

000
ASUS43 KFSD 240202
RWRSD

WEATHER ROUNDUP FOR SOUTH DAKOTA
NATIONAL WEATHER SERVICE SIOUX FALLS SD
900 PM CDT MON MAY 23 2016

NOTE: "FAIR" INDICATES FEW OR NO CLOUDS BELOW 12,000 FEET WITH NO
SIGNIFICANT WEATHER AND/OR OBSTRUCTIONS TO VISIBILITY.


SDZ001>005-009-010-012>017-240300-
NORTHWEST AND NORTH CENTRAL SOUTH DAKOTA

CITY           SKY/WX    TMP DP  RH WIND       PRES   REMARKS
BUFFALO          N/A     64  36  35 NW16      29.68R
FAITH            N/A     66  40  38 CALM      29.69R
MOBRIDGE       CLEAR     67  53  61 SE8       29.65S
$$

SDZ012>016-024>037-041>051-057-063-072>074-240300-
SOUTHWEST AND SOUTH CENTRAL SOUTH DAKOTA

CITY           SKY/WX    TMP DP  RH WIND       PRES   REMARKS
RAPID CTY ARPT CLEAR     68  28  22 W12       29.73R
PIERRE         CLEAR     67  50  54 SE7       29.68R
CUSTER         CLEAR     58  23  26 VRB7G20   29.84R
PHILIP         CLEAR     65  43  44 S8        29.70R
PINE RIDGE     CLOUDY    65  35  33 S21G29    29.80R
WINNER         FAIR      69  49  48 W6        29.72R
$$

SDZ004>011-016>023-039-040-240300-
NORTHEAST SOUTH DAKOTA

CITY           SKY/WX    TMP DP  RH WIND       PRES   REMARKS
ABERDEEN       MOCLDY    72  54  53 S5        29.68S
WATERTOWN      CLOUDY    66  56  70 S5        29.73R
BROOKINGS      CLOUDY    67  58  72 S7        29.75R
SISSETON         N/A     73  53  49 W7        29.68R
$$

SDZ017-020-022-023-036>040-048>070-240300-
SOUTHEAST SOUTH DAKOTA

CITY           SKY/WX    TMP DP  RH WIND       PRES   REMARKS
SIOUX FALLS    CLOUDY    68  61  78 S10       29.76R
HURON          PTCLDY    69  54  58 S5        29.70S
MITCHELL       CLOUDY    70  61  73 SE5       29.72S
YANKTON        CLOUDY    70  61  73 E7        29.72F
$$

ABBREVIATIONS USED IN REMARKS
   TC - TEMPERATURE IN CELSIUS
  WCI - WIND CHILL INDEX
   HX - HEAT INDEX
  VSB - VISIBILITY




USA.gov is the U.S. government's official web portal to all federal, state and local government web resources and services.